VHAGEDORN Weather Reports


time (UTC)temp
C
wind
direction
speed
KPH
gust
KPH
rain 1hr
cm
rain 24hr
cm
rain mn
cm
humidity
%
barometer
mb
20260507041514 3 103 0.0 3.2 0.00 0.00 0.00 51 1014.9
20260507040051 3 107 0.0 3.2 0.00 0.00 0.00 48 1015.0
20260507034518 5 102 0.0 1.6 0.00 0.00 0.00 45 1015.1
20260507033044 5 102 1.6 3.2 0.00 0.00 0.00 44 1015.2
20260507031519 6 104 0.0 1.6 0.00 0.00 0.00 41 1015.1
20260507030053 7 104 0.0 3.2 0.00 0.00 0.00 38 1015.1
20260507024514 8 104 1.6 3.2 0.00 0.00 0.00 35 1014.9
20260507023056 9 104 0.0 3.2 0.00 0.00 0.00 33 1014.9
20260507021522 10 109 0.0 3.2 0.00 0.00 0.00 29 1014.9
20260507020056 11 121 0.0 1.6 0.00 0.00 0.00 26 1014.9
20260507014543 11 121 0.0 0.0 0.00 0.00 0.00 25 1014.8
20260507013054 11 98 0.0 4.8 0.00 0.00 0.00 25 1014.9
20260507011536 11 39 0.0 3.2 0.00 0.00 0.00 24 1015.1
20260507010017 12 111 0.0 6.4 0.00 0.00 0.00 22 1015.2
20260507004600 12 107 3.2 6.4 0.00 0.00 0.00 21 1015.3
20260507003039 12 79 1.6 11.3 0.00 0.00 0.00 24 1015.5
20260507001540 13 144 4.8 19.3 0.00 0.00 0.00 22 1015.8
20260507000046 13 128 3.2 9.7 0.00 0.00 0.00 22 1015.8
20260506234541 13 28 3.2 19.3 0.00 0.00 0.00 23 1016.3
20260506233044 13 128 1.6 17.7 0.00 0.00 0.00 22 1016.2
20260506231544 13 89 3.2 9.7 0.00 0.00 0.00 22 1016.2
20260506230041 14 103 6.4 12.9 0.00 0.00 0.00 22 1016.3
20260506224537 14 86 4.8 19.3 0.00 0.00 0.00 22 1016.4
20260506223011 14 64 3.2 19.3 0.00 0.00 0.00 22 1016.7
20260506221542 14 180 3.2 12.9 0.00 0.00 0.00 23 1017.0
20260506220045 15 108 4.8 16.1 0.00 0.00 0.00 24 1017.3
20260506214559 15 86 3.2 14.5 0.00 0.00 0.00 25 1017.4
20260506213017 15 111 4.8 16.1 0.00 0.00 0.00 22 1017.9
20260506211552 14 111 4.8 16.1 0.00 0.00 0.00 23 1018.4
20260506210037 13 55 6.4 14.5 0.00 0.00 0.00 23 1018.5
20260506204604 13 111 4.8 16.1 0.00 0.00 0.00 24 1018.8
20260506203052 13 111 4.8 19.3 0.00 0.00 0.00 25 1019.0
20260506201523 13 62 3.2 14.5 0.00 0.00 0.00 25 1019.3
20260506200059 12 122 3.2 16.1 0.00 0.00 0.00 27 1019.6
20260506200007 12 165 3.2 16.1 0.00 0.00 0.00 28 1019.5
20260506194604 12 59 3.2 20.9 0.00 0.00 0.00 28 1019.9
20260506193059 11 65 1.6 17.7 0.00 0.00 0.00 28 1020.1
20260506191552 12 149 1.6 11.3 0.00 0.00 0.00 28 1020.2
20260506190022 11 90 3.2 11.3 0.00 0.00 0.00 31 1020.6
20260506184509 11 87 3.2 16.1 0.00 0.00 0.00 30 1020.7
20260506183038 11 107 3.2 11.3 0.00 0.00 0.00 28 1021.2
20260506181518 11 145 3.2 12.9 0.00 0.00 0.00 30 1021.3
20260506180024 10 99 4.8 14.5 0.00 0.00 0.00 32 1021.7
20260506174513 9 110 3.2 14.5 0.00 0.00 0.00 34 1021.7
20260506173034 9 165 4.8 14.5 0.00 0.00 0.00 33 1021.9
20260506171550 8 78 3.2 14.5 0.00 0.00 0.00 34 1022.4
20260506170038 8 104 6.4 16.1 0.00 0.00 0.00 36 1022.4
20260506164507 8 77 3.2 12.9 0.00 0.00 0.00 37 1022.7
20260506163044 8 114 1.6 9.7 0.00 0.00 0.00 38 1022.8
20260506161519 7 61 3.2 16.1 0.00 0.00 0.00 39 1022.9